Погода в Большом Поповом

Россия / Липецкая область     52°55′28″N   39°05′19″E
темп.,
°C
ветер,
м/с
пор.,
м/с
влажн.,
%
обл.,
%
осадки,
мм/ч
давл.,
гПа
погр.,
м
27 ноября, сб
сб2700:00−1ююз6147953 0.0 1016339
03:00−2ю5118132 0.0 1015258
06:00−2ююв51385100 0.0 1014330
09:000ююв61586100 0.0 1013391
12:00+2ююв81881100 0.0 1011605
15:00+3ююв91783100 0.3 1008787
18:00+1ююв91998100 3.0 1006760
21:00+2ю81595100 4.8 1005608
28 ноября, вс
вс2800:00+2ю61395100 0.1 1005434
03:00+3ю51198100 0.2 1005288
06:00+3ю4109994 0.0 1005244
09:00+4ююз3998100 0.0 1007248
12:00+5ююз4897100 0.0 1008269
15:00+5ююз369692 0.0 1009185
18:00+4ю359544 0.0 101087
21:00+5ю3592100 0.0 1011109
29 ноября, пн
пн2900:00+6ю4885100 0.0 1010234
03:00+4юв41095100 0.0 1009216
06:00+4юв51298100 0.0 1006285
09:00+6вюв71698100 3.3 1003674
12:00+7ююв71696100 3.8 1000667
15:00+8ю71497100 4.6 998531
18:00+9ю71493100 0.1 996553
21:00+8юв61398100 1.0 991538
30 ноября, вт
вт3000:00+10ю91795100 8.9 985837
03:00+10ююз91690100 19.7 981743
06:00+8юз111884100 1.5 9821261
09:00+4зюз111878100 1.7 9881121
12:00+2зюз111863100 0.0 9901343
15:00+3юз11176391 0.0 9911430
18:00+1юз101873100 0.0 9921411
21:00+1юз9177681 0.0 9921062
1 декабря, ср
ср100:000юз8147689 0.0 992953
03:00−1юз7127292 0.0 993936
06:00−1зюз7127595 0.0 993929
09:00−1зюз6107499 0.0 995958
12:00−1з71078100 0.1 996983
15:00−2з71188100 0.4 998887
18:00−3зсз611655 0.1 1001762
21:00−3з511745 0.1 1003618